SWR4TH LSZH-LSGG

Flight info

Callsign SWR4TH
Flight time N/A
Altitude 18000
Route VEBIT T50 ROTOS Z669 ULMES
Aircraft A320/M-SDE2E3FGIRWXY/L

Departure

Time 2026-05-04 19:56
Airport Zürich Airport (LSZH)

Arrival

Time N/A
Airport Geneva International Airport (LSGG)
Time Latitude Longitude Altitude Speed Heading
2026-05-04 19:28 47.45354 8.55702 1407 ft 0 kts
2026-05-04 19:47 47.45354 8.55701 1407 ft 1 kts
2026-05-04 19:47 47.45329 8.55698 1407 ft 4 kts
2026-05-04 19:48 47.45302 8.55700 1407 ft 4 kts 351°
2026-05-04 19:48 47.45285 8.55706 1413 ft 4 kts 337°
2026-05-04 19:48 47.45265 8.55726 1407 ft 3 kts 282°
2026-05-04 19:48 47.45264 8.55732 1407 ft 0 kts 276°
2026-05-04 19:50 47.45265 8.55720 1407 ft 4 kts 276°
2026-05-04 19:50 47.45270 8.55648 1407 ft 10 kts 276°
2026-05-04 19:51 47.45317 8.55549 1413 ft 16 kts 338°
2026-05-04 19:51 47.45429 8.55474 1407 ft 20 kts 336°
2026-05-04 19:51 47.45518 8.55457 1413 ft 12 kts 51°
2026-05-04 19:51 47.45519 8.55601 1407 ft 17 kts 96°
2026-05-04 19:52 47.45506 8.55790 1410 ft 19 kts 95°
2026-05-04 19:52 47.45490 8.55994 1411 ft 21 kts 96°
2026-05-04 19:52 47.45477 8.56196 1411 ft 14 kts 88°
2026-05-04 19:52 47.45545 8.56253 1410 ft 11 kts
2026-05-04 19:53 47.45622 8.56264 1416 ft 10 kts
2026-05-04 19:53 47.45700 8.56276 1413 ft 12 kts
2026-05-04 19:53 47.45805 8.56292 1416 ft 16 kts
2026-05-04 19:53 47.45925 8.56311 1413 ft 18 kts
2026-05-04 19:54 47.46054 8.56332 1411 ft 18 kts 12°
2026-05-04 19:54 47.46130 8.56423 1411 ft 8 kts 41°
2026-05-04 19:54 47.46167 8.56419 1416 ft 7 kts 283°
2026-05-04 19:54 47.46177 8.56383 1409 ft 0 kts 316°
2026-05-04 19:55 47.46200 8.56351 1416 ft 22 kts 316°
2026-05-04 19:55 47.46528 8.55901 1399 ft 102 kts 318°
2026-05-04 19:56 47.47202 8.54969 1387 ft 160 kts 317°
2026-05-04 19:56 47.48053 8.53824 1935 ft 166 kts 316°
2026-05-04 19:56 47.48922 8.52678 2707 ft 168 kts 317°
2026-05-04 19:56 47.49846 8.51646 3456 ft 167 kts 330°
2026-05-04 19:57 47.50878 8.50815 4083 ft 170 kts 329°
2026-05-04 19:57 47.51907 8.49951 4709 ft 172 kts 324°
2026-05-04 19:57 47.52807 8.48688 5102 ft 187 kts 304°
2026-05-04 19:57 47.53401 8.46885 5458 ft 205 kts 284°
2026-05-04 19:58 47.53524 8.44716 5812 ft 222 kts 261°
2026-05-04 19:58 47.53024 8.42530 6447 ft 228 kts 239°
2026-05-04 19:58 47.52225 8.40501 7259 ft 229 kts 230°
2026-05-04 19:58 47.51062 8.38911 8046 ft 232 kts 211°
2026-05-04 19:59 47.49491 8.37996 8463 ft 256 kts 192°
2026-05-04 19:59 47.47688 8.37420 9044 ft 271 kts 192°
2026-05-04 19:59 47.45797 8.36821 9942 ft 276 kts 193°
2026-05-04 19:59 47.43899 8.36215 10456 ft 294 kts 193°
2026-05-04 20:00 47.41824 8.35542 10779 ft 316 kts 194°
2026-05-04 20:00 47.39773 8.34283 11374 ft 324 kts 213°
2026-05-04 20:00 47.38099 8.31972 12169 ft 329 kts 233°
2026-05-04 20:00 47.36983 8.29105 12975 ft 332 kts 242°
2026-05-04 20:01 47.35881 8.26000 13834 ft 335 kts 242°
2026-05-04 20:01 47.34799 8.22938 14539 ft 338 kts 242°
2026-05-04 20:01 47.33704 8.19844 15224 ft 342 kts 242°
2026-05-04 20:01 47.32596 8.16723 15909 ft 345 kts 242°
2026-05-04 20:02 47.31475 8.13574 16588 ft 349 kts 242°
2026-05-04 20:02 47.30341 8.10390 17272 ft 352 kts 242°
2026-05-04 20:02 47.29197 8.07176 17845 ft 357 kts 242°
2026-05-04 20:02 47.28046 8.03944 18008 ft 358 kts 242°
2026-05-04 20:03 47.26894 8.00673 18027 ft 361 kts 244°
2026-05-04 20:03 47.25925 7.97256 18024 ft 361 kts 247°
2026-05-04 20:03 47.24977 7.93838 18026 ft 361 kts 247°
2026-05-04 20:03 47.24023 7.90414 18027 ft 362 kts 247°
2026-05-04 20:04 47.23065 7.86988 18025 ft 362 kts 247°
2026-05-04 20:04 47.22105 7.83565 18020 ft 362 kts 247°
2026-05-04 20:04 47.20257 7.77010 18026 ft 362 kts 247°
2026-05-04 20:05 47.19259 7.73615 18025 ft 362 kts 243°
2026-05-04 20:05 47.17912 7.70498 18025 ft 362 kts 232°
2026-05-04 20:05 47.16409 7.67735 18027 ft 362 kts 232°
2026-05-04 20:05 47.14838 7.64838 18024 ft 362 kts 232°
2026-05-04 20:06 47.13272 7.61938 18027 ft 362 kts 232°
2026-05-04 20:06 47.11707 7.59034 18026 ft 362 kts 232°
2026-05-04 20:06 47.10142 7.56134 18031 ft 363 kts 232°
2026-05-04 20:06 47.08577 7.53240 18027 ft 363 kts 232°
2026-05-04 20:07 47.07003 7.50336 18032 ft 363 kts 232°
2026-05-04 20:07 47.05434 7.47449 18028 ft 363 kts 231°
2026-05-04 20:07 47.03858 7.44555 18032 ft 363 kts 231°
2026-05-04 20:07 47.02283 7.41661 18030 ft 363 kts 231°
2026-05-04 20:08 47.00706 7.38766 18029 ft 363 kts 231°
2026-05-04 20:08 46.99128 7.35877 18033 ft 363 kts 231°
2026-05-04 20:08 46.97526 7.32948 18028 ft 364 kts 231°
2026-05-04 20:08 46.95940 7.30061 18031 ft 364 kts 231°
2026-05-04 20:09 46.94353 7.27177 18033 ft 364 kts 231°
2026-05-04 20:09 46.92770 7.24294 18030 ft 364 kts 231°
2026-05-04 20:09 46.91183 7.21399 18035 ft 364 kts 231°
2026-05-04 20:09 46.89603 7.18518 18035 ft 364 kts 231°
2026-05-04 20:10 46.88015 7.15626 18035 ft 364 kts 231°
2026-05-04 20:10 46.86434 7.12747 18035 ft 364 kts 231°
2026-05-04 20:10 46.84851 7.09871 17954 ft 360 kts 231°
2026-05-04 20:10 46.83303 7.07066 17684 ft 350 kts 231°
2026-05-04 20:11 46.81794 7.04333 17414 ft 342 kts 231°
2026-05-04 20:11 46.80315 7.01651 17000 ft 338 kts 231°
2026-05-04 20:11 46.78846 6.98988 16533 ft 336 kts 231°
2026-05-04 20:11 46.77384 6.96341 16082 ft 334 kts 231°
2026-05-04 20:12 46.75927 6.93707 15617 ft 333 kts 231°
2026-05-04 20:12 46.74476 6.91085 15172 ft 332 kts 231°
2026-05-04 20:12 46.73027 6.88476 14714 ft 331 kts 230°
2026-05-04 20:12 46.71578 6.85877 14260 ft 330 kts 230°
2026-05-04 20:13 46.70130 6.83285 13806 ft 329 kts 230°
2026-05-04 20:13 46.68686 6.80700 13316 ft 328 kts 230°
2026-05-04 20:13 46.67254 6.78129 12837 ft 326 kts 230°
2026-05-04 20:13 46.65833 6.75577 12385 ft 323 kts 230°
2026-05-04 20:14 46.64391 6.73079 11921 ft 321 kts 229°
2026-05-04 20:14 46.62915 6.70653 11433 ft 319 kts 227°
2026-05-04 20:14 46.61428 6.68265 10968 ft 317 kts 227°
2026-05-04 20:14 46.59945 6.65896 10504 ft 316 kts 227°
2026-05-04 20:15 46.58467 6.63532 10262 ft 306 kts 227°
2026-05-04 20:15 46.57531 6.62029 10194 ft 298 kts 227°
2026-05-04 20:15 46.55724 6.59113 9990 ft 284 kts 227°
2026-05-04 20:15 46.54415 6.56994 9630 ft 281 kts 227°
2026-05-04 20:16 46.53098 6.54864 9162 ft 282 kts 227°